Redding, CA

5:13 AM PDT on July 22, 2017 (GMT -0700)
Redding Municipal

Weather History for KRDD - January, 2013

Change the Weather History Date:

Tuesday, January 8, 2013

  Actual Average Record
Temperature  
Mean Temperature 48 °F -  
Max Temperature 59 °F 54 °F 73 °F (2007)
Min Temperature 36 °F 36 °F 25 °F (1987)
Degree Days  
Heating Degree Days 17    
Cooling Degree Days 0    
Moisture  
Dew Point 39 °F    
Average Humidity 77    
Maximum Humidity 96    
Minimum Humidity 57    
Precipitation  
Precipitation 0.00 in 0.20 in 3.28 in (1995)
Month to date precipitation 0.06 1.56  
Year to date precipitation 0.06 1.56  
Since 1 July precipitation 19.22  
Sea Level Pressure  
Sea Level Pressure 30.19 in    
Wind  
Wind Speed 3 mph (SE)    
Max Wind Speed 9 mph    
Max Gust Speed 10 mph    
Visibility 7 miles    
Events Fog    
T = Trace of Precipitation, MM = Missing Value Source: NWS Daily Summary

Daily Weather History Graph

Daily Weather History Graph

Search for Another Location

Airport or City:

Trip Planner

Search our weather history database for the weather conditions in past years. The results will help you decide how hot, cold, wet, or windy it might be!

Date:

Astronomy

Jan. 08, 2013 Rise Set
Actual Time 7:32 AM PST 5:00 PM PST
Civil Twilight 7:02 AM PST 5:30 PM PST
Nautical Twilight 6:28 AM PST 6:04 PM PST
Astronomical Twilight 5:55 AM PST 6:37 PM PST
Moon 4:11 AM PST (1/8) 2:07 PM PST (1/8)
Length of Visible Light 10h 28m
Length of Day
9h 27m
Waning Crescent, 13% of the Moon is Illuminated
Jan 8
Waning Crescent
Jan 11
New
Jan 18
First Quarter
Jan 26
Full
Feb 3
Last Quarter

Hourly Weather History & Observations

Time (PST) Temp. Windchill Dew Point Humidity Pressure Visibility Wind Dir Wind Speed Gust Speed Precip Events Conditions
12:53 AM 45.0 °F 41.8 °F 37.9 °F 76% 30.20 in 10.0 mi North 5.8 mph - N/A   Clear
1:53 AM 44.1 °F - 37.9 °F 79% 30.21 in 10.0 mi Calm Calm - N/A   Clear
2:53 AM 45.0 °F 41.8 °F 37.9 °F 76% 30.20 in 10.0 mi NNW 5.8 mph - N/A   Clear
3:53 AM 45.0 °F 43.5 °F 37.9 °F 76% 30.18 in 10.0 mi NW 3.5 mph - N/A   Clear
4:53 AM 41.0 °F 39.0 °F 36.0 °F 82% 30.17 in 10.0 mi North 3.5 mph - N/A   Clear
5:53 AM 45.0 °F 43.5 °F 37.0 °F 74% 30.19 in 10.0 mi NNE 3.5 mph - N/A   Clear
6:53 AM 37.9 °F 32.1 °F 35.1 °F 89% 30.21 in 10.0 mi South 8.1 mph - N/A   Clear
7:53 AM 37.0 °F 31.6 °F 34.0 °F 89% 30.23 in 10.0 mi SSE 6.9 mph - N/A   Clear
8:53 AM 41.0 °F 37.1 °F 37.0 °F 86% 30.26 in 10.0 mi South 5.8 mph - N/A   Clear
9:38 AM 39.2 °F 35.9 °F 37.4 °F 93% 30.26 in 1.2 mi SSE 4.6 mph - N/A   Partly Cloudy
9:41 AM 39.2 °F 35.0 °F 37.4 °F 93% 30.26 in 0.8 mi SE 5.8 mph - N/A   Mist
9:50 AM 39.2 °F 35.9 °F 37.4 °F 93% 30.26 in 0.2 mi SE 4.6 mph - N/A Fog Fog
9:53 AM 39.0 °F 36.8 °F 37.9 °F 96% 30.27 in 0.2 mi SE 3.5 mph - N/A Fog Fog
10:53 AM 41.0 °F 39.0 °F 39.0 °F 93% 30.25 in 0.2 mi SE 3.5 mph - N/A Fog Fog
11:49 AM 42.8 °F - 41.0 °F 93% 30.21 in 1.5 mi Calm Calm - N/A   Mostly Cloudy
11:53 AM 43.0 °F - 41.0 °F 93% 30.21 in 10.0 mi Calm Calm - N/A   Partly Cloudy
12:53 PM 50.0 °F - 43.0 °F 77% 30.17 in 10.0 mi Calm Calm - N/A   Clear
1:53 PM 55.9 °F - 42.1 °F 60% 30.14 in 10.0 mi Calm Calm - N/A   Clear
2:53 PM 57.9 °F - 43.0 °F 58% 30.13 in 10.0 mi SSE 3.5 mph - N/A   Clear
3:53 PM 57.0 °F - 45.0 °F 64% 30.12 in 10.0 mi SSE 6.9 mph - N/A   Clear
4:53 PM 53.1 °F - 44.1 °F 71% 30.12 in 10.0 mi Calm Calm - N/A   Clear
5:53 PM 50.0 °F - 43.0 °F 77% 30.12 in 8.0 mi Calm Calm - N/A   Clear
6:53 PM 45.0 °F - 41.0 °F 86% 30.13 in 9.0 mi Calm Calm - N/A   Clear
7:53 PM 45.0 °F - 41.0 °F 86% 30.14 in 10.0 mi Calm Calm - N/A   Clear
8:53 PM 44.6 °F - 39.2 °F 81% 30.15 in 6.0 mi Calm Calm - N/A   Haze
9:53 PM 44.1 °F - 39.9 °F 85% 30.16 in 5.0 mi Calm Calm - N/A   Clear
10:53 PM 42.1 °F - 39.0 °F 89% 30.19 in 5.0 mi Calm Calm - N/A   Clear
11:53 PM 42.1 °F - 39.0 °F 89% 30.19 in 4.0 mi Calm Calm - N/A   Clear